AFX14 EDDF-LOWI

Flight info

Callsign AFX14
Flight time N/A
Altitude 19000
Route SULUS7S/18 SULUS Z650 NIKUS M736 RDG/N0272F180 M736 DOSEL/N0271F190 M736 TULSI TULSI3A
Aircraft AT76/M-SDFGIRY/S

Departure

Time 2026-05-04 19:09
Airport Frankfurt Main Airport (EDDF)

Arrival

Time N/A
Airport Innsbruck Airport (LOWI)
Time Latitude Longitude Altitude Speed Heading
2026-05-04 18:30 50.04969 8.59157 357 ft 0 kts 160°
2026-05-04 18:49 50.04974 8.59154 357 ft 4 kts 161°
2026-05-04 18:49 50.05000 8.59143 357 ft 4 kts 173°
2026-05-04 18:49 50.05027 8.59143 357 ft 4 kts 196°
2026-05-04 18:50 50.05046 8.59161 364 ft 3 kts 247°
2026-05-04 18:50 50.05047 8.59165 357 ft 0 kts 250°
2026-05-04 18:53 50.05043 8.59147 357 ft 3 kts 247°
2026-05-04 18:53 50.05029 8.59102 361 ft 6 kts 243°
2026-05-04 18:53 50.05010 8.59037 357 ft 7 kts 249°
2026-05-04 18:54 50.04990 8.58948 357 ft 11 kts 251°
2026-05-04 18:54 50.04959 8.58810 364 ft 16 kts 249°
2026-05-04 18:54 50.04918 8.58630 361 ft 19 kts 252°
2026-05-04 18:54 50.04876 8.58414 357 ft 22 kts 255°
2026-05-04 18:55 50.04838 8.58210 362 ft 18 kts 250°
2026-05-04 18:55 50.04820 8.58136 357 ft 6 kts 249°
2026-05-04 18:55 50.04814 8.58112 357 ft 0 kts 249°
2026-05-04 18:58 50.04805 8.58075 361 ft 9 kts 251°
2026-05-04 18:59 50.04799 8.58049 360 ft 0 kts 251°
2026-05-04 18:59 50.04796 8.58038 357 ft 3 kts 249°
2026-05-04 18:59 50.04783 8.58000 357 ft 5 kts 233°
2026-05-04 19:00 50.04721 8.57902 360 ft 21 kts 224°
2026-05-04 19:00 50.04657 8.57683 360 ft 23 kts 249°
2026-05-04 19:00 50.04593 8.57419 357 ft 30 kts 248°
2026-05-04 19:00 50.04519 8.57104 357 ft 29 kts 249°
2026-05-04 19:01 50.04451 8.56834 357 ft 24 kts 249°
2026-05-04 19:01 50.04400 8.56611 360 ft 20 kts 251°
2026-05-04 19:01 50.04358 8.56424 357 ft 17 kts 249°
2026-05-04 19:01 50.04313 8.56247 357 ft 21 kts 249°
2026-05-04 19:02 50.04251 8.55978 362 ft 31 kts 251°
2026-05-04 19:02 50.04165 8.55628 360 ft 38 kts 249°
2026-05-04 19:02 50.04074 8.55244 358 ft 29 kts 249°
2026-05-04 19:02 50.04012 8.54979 357 ft 24 kts 250°
2026-05-04 19:03 50.03946 8.54709 359 ft 29 kts 249°
2026-05-04 19:03 50.03867 8.54397 357 ft 31 kts 245°
2026-05-04 19:03 50.03778 8.54132 361 ft 24 kts 250°
2026-05-04 19:03 50.03728 8.53916 359 ft 19 kts 248°
2026-05-04 19:04 50.03684 8.53737 363 ft 16 kts 250°
2026-05-04 19:04 50.03659 8.53631 359 ft 15 kts 250°
2026-05-04 19:04 50.03593 8.53372 360 ft 35 kts 250°
2026-05-04 19:04 50.03508 8.53007 357 ft 26 kts 252°
2026-05-04 19:05 50.03453 8.52794 359 ft 17 kts 241°
2026-05-04 19:05 50.03438 8.52748 358 ft 0 kts 246°
2026-05-04 19:05 50.03439 8.52748 358 ft 0 kts 246°
2026-05-04 19:06 50.03438 8.52748 358 ft 0 kts 246°
2026-05-04 19:06 50.03439 8.52748 358 ft 0 kts 246°
2026-05-04 19:06 50.03438 8.52747 358 ft 2 kts 246°
2026-05-04 19:06 50.03395 8.52614 366 ft 12 kts 227°
2026-05-04 19:07 50.03365 8.52596 362 ft 0 kts 181°
2026-05-04 19:08 50.03353 8.52596 363 ft 14 kts 181°
2026-05-04 19:08 50.03032 8.52592 356 ft 77 kts 180°
2026-05-04 19:08 50.02326 8.52587 365 ft 127 kts 181°
2026-05-04 19:09 50.01362 8.52685 628 ft 144 kts 174°
2026-05-04 19:09 50.00249 8.52856 686 ft 180 kts 178°
2026-05-04 19:09 49.98973 8.52840 1133 ft 185 kts 186°
2026-05-04 19:09 49.97719 8.52708 1895 ft 176 kts 181°
2026-05-04 19:10 49.96510 8.53115 2401 ft 188 kts 154°
2026-05-04 19:10 49.95531 8.54593 2580 ft 208 kts 117°
2026-05-04 19:10 49.95064 8.56649 3164 ft 198 kts 108°
2026-05-04 19:10 49.94429 8.58565 3530 ft 208 kts 131°
2026-05-04 19:11 49.93299 8.60059 3655 ft 216 kts 125°
2026-05-04 19:11 49.92842 8.62266 3842 ft 226 kts 87°
2026-05-04 19:11 49.93148 8.64719 3835 ft 240 kts 73°
2026-05-04 19:11 49.93580 8.67280 3987 ft 246 kts 73°
2026-05-04 19:12 49.93970 8.69839 4353 ft 241 kts 84°